Regional Weather Roundup
Issued by NWS

Home | Current Version | Previous Version | Graphics & Text | Print | Product List | Glossary On
Versions: 1 2 3 4 5 6 7 8 9 10 11 12 13 14 15 16 17 18 19 20 21 22 23 24 25 26 27 28 29 30 31 32 33 34 35 36 37 38 39 40 41 42 43 44 45 46 47 48 49 50
000
ASUS43 KMPX 272010
RWRMN
WEATHER ROUNDUP FOR MINNESOTA
NATIONAL WEATHER SERVICE TWIN CITIES/CHANHASSEN MN
300 PM CDT WED MAY 27 2015


NOTE: "FAIR" INDICATES FEW OR NO CLOUDS BELOW 12,000 FEET WITH NO
SIGNIFICANT WEATHER AND/OR OBSTRUCTIONS TO VISIBILITY. N/A MEANS
CURRENT SKY AND/OR WEATHER CONDITIONS ARE NOT AVAILABLE.

MNZ060>063-068>070-272100-
   Twin Cities Metro

CITY           SKY/WX    TMP DP  RH WIND       PRES   REMARKS
TWIN CITIES    SUNNY     81  56  42 SW12      29.95S
ST PAUL        SUNNY     80  58  46 SW10      29.95S
CRYSTAL        SUNNY     82  56  40 W12       29.94R
BLAINE         SUNNY     82  57  42 SW8G16    29.95S
LAKEVILLE      SUNNY     77  59  53 W9        29.97S
EDEN PRAIRIE   SUNNY     81  59  47 W8        29.95S
SOUTH ST PAUL  SUNNY     80  56  44 W9G17     29.96R
LAKE ELMO      FAIR      79  61  53 SW10      29.97S
$$
MNZ001>005-007-008-013>017-022>024-027-028-272100-
   Northwest Minnesota

CITY           SKY/WX    TMP DP  RH WIND       PRES   REMARKS
BEMIDJI        SUNNY     79  50  36 W10       29.96R
HALLOCK        SUNNY     72  46  40 N10       29.98S
ROSEAU         SUNNY     73  46  38 NE8       29.96S
WARROAD        SUNNY     72  54  53 E8        29.98R
THIEF RVR FALL SUNNY     73  48  40 N9        29.98R
CROOKSTON      SUNNY     75  48  38 N8        29.97S
FOSSTON        SUNNY     79  48  34 W5        29.97S
DETROIT LAKES  SUNNY     79  50  36 W9        29.99R
MOORHEAD       SUNNY     79  52  38 N8        29.97S
PARK RAPIDS    SUNNY     83  46  27 NW9       29.95R
MAHNOMEN       FAIR      78  49  36 W9        29.97R
$$
MNZ006-009>011-018-025>026-272100-
   North Central Minnesota

CITY           SKY/WX    TMP DP  RH WIND       PRES   REMARKS
BAUDETTE       SUNNY     69  47  45 N12       29.97R
FLAG ISLAND    SUNNY     64  45  48 NE7       29.97R
INTL FALLS     PTSUNNY   76  51  41 N12       29.92R
WASKISH        SUNNY     73  54  49 SW6       29.95S
BIG FORK       MOSUNNY  N/A N/A N/A NW8       29.93S
LONGVILLE      SUNNY     79  46  31 NW6       29.95S
GRAND RAPIDS   SUNNY     79  50  36 W12       29.94R
CRANE LAKE     MOSUNNY   73  50  43 NW8G16    29.91R
COOK           SUNNY     79  46  31 W13G20    29.91R
WALKER         FAIR      79  49  35 NW8       29.94S
$$
MNZ012-019>021-037-272100-
   Northeast Minnesota

CITY           SKY/WX    TMP DP  RH WIND       PRES   REMARKS
DULUTH         MOSUNNY   80  49  33 W13G20    29.90R
HIBBING        MOSUNNY   80  46  30 NW10G20   29.90R
EVELETH        SUNNY     81  45  28 W12       29.91R
DULUTH HARBOR  SUNNY     79  52  38 N7        29.87R
TWO HARBORS    SUNNY     82  54  36 W7        29.85R
SILVER BAY     MOSUNNY   84  46  26 NW5       29.84S
GRAND MARAIS     N/A     47  42  83 SW14      29.82
G MARAIS ARPRT MOSUNNY   77  43  29 NW6       29.88R
$$
MNZ029>031-032-039>041-046>048-054>057-064-272100-
   West Central Minnesota

CITY           SKY/WX    TMP DP  RH WIND       PRES   REMARKS
FERGUS FALLS   SUNNY     81  54  39 W6        29.96S
WHEATON        SUNNY     79  50  36 NW3       29.99S
MORRIS         SUNNY     84  48  28 NW10G16   29.97S
ALEXANDRIA     SUNNY     80  50  34 NW7       29.99R
ELBOW LAKE     FAIR      79  54  42 N10       29.98R
WADENA         SUNNY     81  52  36 W8        29.96S
GLENWOOD       SUNNY     81  48  32 W8        29.99R
APPLETON       SUNNY     84  46  26 W6        29.97S
BENSON         SUNNY     84  45  24 NW9       29.98R
ORTONVILLE     SUNNY     82  46  28 NW3       29.98S
MADISON        SUNNY     82  46  28 W9        29.98S
WILLMAR          N/A     82  50  32 NW8       29.98S
$$
MNZ033>034-036-042>043-049>051-058-059-272100-
   Central Minnesota

CITY           SKY/WX    TMP DP  RH WIND       PRES   REMARKS
ST CLOUD       SUNNY     83  55  38 VRB6      29.95R
SAUK CENTRE    FAIR      80  52  37 NW5       29.97S
PAYNESVILLE    SUNNY     78  50  37 W7        29.97S
AITKIN         SUNNY     82  43  24 NW6       29.93R
PINE RIVER     SUNNY     81  52  36 NW8       29.97S
BRAINERD       MOSUNNY   81  48  31 VRB5      29.95R
STAPLES        SUNNY     81  48  32 W9        29.96R
LONG PRAIRIE   FAIR      81  50  34 NW6       29.97S HAZE
LITTLE FALLS   SUNNY     81  46  30 SW5       29.95S
LITCHFIELD       N/A     82  52  34 W3        29.97R
BUFFALO        SUNNY     82  53  37 W7        29.97R
MAPLE LAKE     SUNNY     82  57  42 W6        29.97S
$$
MNZ037-044-045-052-053-272100-
   East Central Minnesota

CITY           SKY/WX    TMP DP  RH WIND       PRES   REMARKS
PRINCETON      SUNNY     82  54  36 W9        29.95S
MORA           SUNNY     79  46  31 NW9       29.95R
CAMBRIDGE      SUNNY     84  61  45 W8        29.93R
RUSH CITY      SUNNY     81  57  44 W5        29.94R
MOOSE LAKE     SUNNY     81  55  41 W6        29.90R
HINCKLEY       FAIR      81  52  36 W8G16     29.93R
CLOQUET        MOSUNNY   79  45  29 W12       29.91R
MCGREGOR       SUNNY     81  50  34 W9        29.93R
$$
MNZ071>073-080-081-089-090-097-098-272100-
   Southwest Minnesota

CITY           SKY/WX    TMP DP  RH WIND       PRES   REMARKS
MONTEVIDEO     SUNNY     84  48  28 NW9       29.98S
GRANITE FALLS  SUNNY     84  48  28 NW7       29.99S
CANBY          SUNNY     82  50  33 CALM      29.99F
MARSHALL       SUNNY     82  46  28 N8        29.98F
REDWOOD FALLS  SUNNY     84  52  33 VRB3      29.97S
OLIVIA         SUNNY     81  50  34 NW10      29.97S
PIPESTONE      MOSUNNY   81  43  26 W6        30.02S
WINDOM         SUNNY     82  52  34 CALM      30.01S
WORTHINGTON    MOSUNNY   81  46  30 W8        30.02R
JACKSON        SUNNY     82  50  32 NW12      30.02S
TRACY          SUNNY     85  46  25 NW5       30.00S
SLAYTON        SUNNY     81  43  26 W9G16     30.02S
$$
MNZ065>067-074>077-082>085-091>093-272100-
   South Central Minnesota

CITY           SKY/WX    TMP DP  RH WIND       PRES   REMARKS
MANKATO        SUNNY     79  59  50 W8        29.99S
NEW ULM        SUNNY     81  55  41 W7        29.98S
ST JAMES       SUNNY     82  55  39 W3        30.00S
FAIRMONT       SUNNY     82  50  32 SW9G16    30.00S
GLENCOE        SUNNY     81  62  51 SW8       29.97S
FARIBAULT      SUNNY     79  61  53 SW9       29.99S
OWATONNA       SUNNY     79  57  47 SW9G17    30.00S
WASECA         SUNNY     77  59  53 SW14      30.01S
ALBERT LEA     SUNNY     79  57  47 SW6       30.01S
$$
MNZ078>079-086>088-094>096-272100-
   Southeast Minnesota

CITY           SKY/WX    TMP DP  RH WIND       PRES   REMARKS
ROCHESTER      SUNNY     78  60  53 W12       30.01S
RED WING       SUNNY     82  54  36 W9        29.96R
STANTON        SUNNY     80  56  44 W10       29.97S
DODGE CENTER   SUNNY     79  59  50 W14       30.01R
WINONA         MOSUNNY   79  59  50 W8        29.98S
AUSTIN         SUNNY     77  57  50 W12       30.01S
PRESTON        SUNNY     76  58  53 SW14      30.02S
$$
ABBREVIATIONS USED IN REMARKS
   TC - TEMPERATURES IN CELSIUS
  WCI - WIND CHILL INDEX
   HX - HEAT INDEX
  VSB - VISIBILITY
$$


USA.gov is the U.S. government's official web portal to all federal, state and local government web resources and services.